Denton, TX

12:32 AM CDT on May 24, 2018 (GMT -0500)
Denton Municipal

Weather History for KDTO - September, 2013

Change the Weather History Date:

Wednesday, September 25, 2013

  Actual Average Record
Temperature  
Mean Temperature 72 °F -  
Max Temperature 91 °F 84 °F 102 °F (2005)
Min Temperature 53 °F 58 °F 46 °F (2000)
Cooling Degree Days 7    
Growing Degree Days 22 (Base 50)    
Moisture  
Dew Point 51 °F    
Average Humidity 53    
Maximum Humidity 93    
Minimum Humidity 23    
Precipitation  
Precipitation 0.00 in - - ()
Sea Level Pressure  
Sea Level Pressure 29.83 in    
Wind  
Wind Speed 4 mph (East)    
Max Wind Speed 10 mph    
Max Gust Speed -    
Visibility 10 miles    
Events      
Averages and records for this station are not official NWS values.
T = Trace of Precipitation, MM = Missing Value Source: NWS Daily Summary

Daily Weather History Graph

Daily Weather History Graph

Search for Another Location

Airport or City:

Astronomy

Sep. 25, 2013 Rise Set
Actual Time 7:19 AM CDT 7:21 PM CDT
Civil Twilight 6:54 AM CDT 7:45 PM CDT
Nautical Twilight 6:25 AM CDT 8:14 PM CDT
Astronomical Twilight 5:56 AM CDT 8:43 PM CDT
Moon 11:44 PM CDT (9/25) 1:10 PM CDT (9/25)
Length of Visible Light 12h 51m
Length of Day
12h 01m
Waning Gibbous, 64% of the Moon is Illuminated
Sep 25
Waning Gibbous
Sep 26
Last Quarter
Oct 4
New
Oct 11
First Quarter
Oct 18
Full

Hourly Weather History & Observations

Time (CDT) Temp. Dew Point Humidity Pressure Visibility Wind Dir Wind Speed Gust Speed Precip Events Conditions
12:53 AM 63.0 °F 51.1 °F 65% 29.86 in 10.0 mi WNW 4.6 mph - N/A   Unknown
1:53 AM 60.1 °F 52.0 °F 75% 29.86 in 10.0 mi Calm Calm - N/A   Unknown
2:53 AM 55.9 °F 52.0 °F 87% 29.86 in 10.0 mi North 4.6 mph - N/A   Unknown
3:53 AM 57.0 °F 51.1 °F 81% 29.86 in 10.0 mi West 4.6 mph - N/A   Unknown
4:53 AM 55.9 °F 51.1 °F 84% 29.86 in 10.0 mi Calm Calm - N/A   Unknown
5:53 AM 55.9 °F 51.1 °F 84% 29.86 in 7.0 mi NW 3.5 mph - N/A   Unknown
6:53 AM 53.1 °F 51.1 °F 93% 29.87 in 10.0 mi NNE 3.5 mph - N/A   Unknown
7:53 AM 54.0 °F 52.0 °F 93% 29.88 in 10.0 mi North 4.6 mph - N/A   Unknown
8:53 AM 64.9 °F 54.0 °F 68% 29.88 in 10.0 mi North 4.6 mph - N/A   Unknown
9:53 AM 73.9 °F 55.9 °F 53% 29.89 in 10.0 mi NE 5.8 mph - N/A   Unknown
10:53 AM 80.1 °F 51.1 °F 36% 29.90 in 10.0 mi Calm Calm - N/A   Clear
11:53 AM 84.0 °F 48.9 °F 29% 29.89 in 10.0 mi Variable 3.5 mph - N/A   Clear
12:53 PM 87.1 °F 48.9 °F 27% 29.86 in 10.0 mi SSE 4.6 mph - N/A   Clear
1:53 PM 89.1 °F 48.9 °F 25% 29.83 in 10.0 mi Calm Calm - N/A   Clear
2:53 PM 90.0 °F 48.0 °F 24% 29.80 in 10.0 mi Calm Calm - N/A   Clear
3:53 PM 91.0 °F 48.0 °F 23% 29.78 in 10.0 mi Variable 3.5 mph - N/A   Clear
4:53 PM 91.0 °F 48.9 °F 23% 29.76 in 10.0 mi ESE 9.2 mph - N/A   Clear
5:53 PM 90.0 °F 48.9 °F 24% 29.75 in 10.0 mi SE 10.4 mph - N/A   Clear
6:53 PM 87.1 °F 50.0 °F 28% 29.76 in 10.0 mi SE 6.9 mph - N/A   Clear
7:53 PM 82.0 °F 51.1 °F 34% 29.75 in 10.0 mi ESE 5.8 mph - N/A   Clear
8:53 PM 75.0 °F 54.0 °F 48% 29.77 in 10.0 mi SE 4.6 mph - N/A   Clear
9:53 PM 73.9 °F 55.9 °F 53% 29.78 in 10.0 mi SE 6.9 mph - N/A   Clear
10:53 PM 73.9 °F 55.0 °F 52% 29.78 in 10.0 mi SE 8.1 mph - N/A   Clear
11:53 PM 73.0 °F 54.0 °F 51% 29.78 in 10.0 mi SE 8.1 mph - N/A   Clear